Weather History for Kirksville, MO

Change the Weather History Date:

Saturday, December 29, 2012

  Actual Average Record
Temperature  
Mean Temperature 22 °F 26 °F  
Max Temperature 27 °F 35 °F 66 °F (1984)
Min Temperature 17 °F 18 °F -6 °F (1924)
Degree Days  
Heating Degree Days 43 39  
Month to date heating degree days 897 1045  
Since 1 July heating degree days 2167 2266  
Cooling Degree Days 0 0  
Month to date cooling degree days 0 0  
Year to date cooling degree days 1321 939  
Moisture  
Dew Point 16 °F    
Average Humidity 78    
Maximum Humidity 88    
Minimum Humidity 68    
Precipitation  
Precipitation T in 0.04 in 0.56 in (1990)
Month to date precipitation 1.67 1.67  
Year to date precipitation 28.09 39.23  
Sea Level Pressure  
Sea Level Pressure 30.17 in    
Wind  
Wind Speed 9 mph (WNW)    
Max Wind Speed 17 mph    
Max Gust Speed 23 mph    
Visibility 7 miles    
Events Snow    
T = Trace of Precipitation, MM = Missing Value Source: NWS Daily Summary

Daily Weather History Graph

Daily Weather History Graph

Search for Another Location

Airport:

Trip Planner

Search our weather history database for the weather conditions in past years. The results will help you decide how hot, cold, wet, or windy it might be!

Date:

Astronomy

Dec. 29, 2012 Rise Set
Actual Time 7:31 AM CST 4:53 PM CST
Civil Twilight 7:01 AM CST 5:23 PM CST
Nautical Twilight 6:27 AM CST 5:57 PM CST
Astronomical Twilight 5:54 AM CST 6:30 PM CST
Moon 6:26 PM CST (12/29) 8:05 AM CST (12/29)
Length of Visible Light 10h 22m
Length of Day
9h 21m
Full, 98% of the Moon is Illuminated
Dec 29
Full
Jan 4
Last Quarter
Jan 11
New
Jan 18
First Quarter
Jan 26
Full

Hourly Weather History & Observations

Time (CST) Temp. Windchill Dew Point Humidity Pressure Visibility Wind Dir Wind Speed Gust Speed Precip Events Conditions
12:24 AM 26.6 °F 18.2 °F 23.0 °F 86% 29.97 in 2.5 mi NW 8.1 mph - 0.00 in Snow Light Snow
12:55 AM 26.1 °F 16.8 °F 23.0 °F 88% 30.02 in 2.5 mi NW 9.2 mph - 0.00 in Snow Light Snow
1:55 AM 25.0 °F 13.6 °F 21.0 °F 85% 30.04 in 3.0 mi NW 12.7 mph - 0.00 in Snow Light Snow
2:55 AM 24.1 °F 13.7 °F 19.0 °F 81% 30.06 in 4.0 mi NNW 10.4 mph - 0.00 in Snow Light Snow
3:06 AM 24.8 °F 14.0 °F 19.4 °F 80% 30.02 in 5.0 mi NNW 11.5 mph - 0.00 in   Haze
3:55 AM 23.0 °F 10.6 °F 18.0 °F 81% 30.08 in 6.0 mi NW 13.8 mph - 0.00 in   Haze
4:12 AM 21.2 °F 10.1 °F 17.6 °F 86% 30.04 in 7.0 mi NW 10.4 mph 21.9 mph N/A   Overcast
4:19 AM 21.2 °F 11.7 °F 17.6 °F 86% 30.04 in 7.0 mi NW 8.1 mph 17.3 mph N/A   Overcast
4:41 AM 21.2 °F 9.5 °F 17.6 °F 86% 30.05 in 6.0 mi NW 11.5 mph 18.4 mph N/A   Overcast
4:55 AM 21.0 °F 10.6 °F 16.0 °F 81% 30.10 in 6.0 mi NW 9.2 mph - N/A   Haze
5:03 AM 19.4 °F 7.2 °F 15.8 °F 86% 30.05 in 6.0 mi NW 11.5 mph - N/A   Mostly Cloudy
5:44 AM 19.4 °F 7.9 °F 15.8 °F 86% 30.07 in 6.0 mi WNW 10.4 mph - N/A   Overcast
5:55 AM 19.4 °F 7.9 °F 15.8 °F 86% 30.07 in 6.0 mi NW 10.4 mph - N/A   Overcast
6:55 AM 19.9 °F 9.3 °F 16.0 °F 85% 30.16 in 5.0 mi WNW 9.2 mph - N/A   Overcast
7:55 AM 19.0 °F 5.6 °F 15.1 °F 85% 30.18 in 5.0 mi WNW 13.8 mph - N/A   Overcast
8:55 AM 18.0 °F 4.2 °F 14.0 °F 84% 30.21 in 4.0 mi WNW 13.8 mph 20.7 mph N/A   Overcast
9:55 AM 18.0 °F 6.1 °F 12.9 °F 81% 30.24 in 6.0 mi West 10.4 mph - N/A   Haze
10:55 AM 18.0 °F 4.8 °F 12.9 °F 81% 30.25 in 6.0 mi WNW 12.7 mph - N/A   Haze
11:55 AM 19.9 °F 7.3 °F 14.0 °F 78% 30.25 in 8.0 mi WNW 12.7 mph - N/A   Mostly Cloudy
12:34 PM 19.4 °F 6.6 °F 14.0 °F 80% 30.19 in 8.0 mi West 12.7 mph - N/A   Mostly Cloudy
12:55 PM 21.0 °F 9.3 °F 14.0 °F 74% 30.24 in 7.0 mi West 11.5 mph - N/A   Scattered Clouds
1:55 PM 23.0 °F 12.4 °F 14.0 °F 68% 30.24 in 8.0 mi West 10.4 mph - N/A   Clear
2:55 PM 25.0 °F 15.5 °F 15.1 °F 66% 30.25 in 9.0 mi West 9.2 mph - N/A   Clear
3:55 PM 25.0 °F 15.5 °F 15.1 °F 66% 30.26 in 10.0 mi West 9.2 mph - N/A   Clear
4:55 PM 23.0 °F 13.9 °F 15.1 °F 72% 30.27 in 10.0 mi West 8.1 mph - N/A   Clear
5:55 PM 21.9 °F 14.5 °F 14.0 °F 72% 30.29 in 10.0 mi West 5.8 mph - N/A   Clear
6:55 PM 19.9 °F 13.4 °F 14.0 °F 78% 30.31 in 10.0 mi SW 4.6 mph - N/A   Clear
7:55 PM 19.0 °F 12.3 °F 12.9 °F 77% 30.31 in 10.0 mi SW 4.6 mph - N/A   Clear
8:55 PM 19.9 °F 12.1 °F 14.0 °F 78% 30.32 in 10.0 mi SW 5.8 mph - N/A   Clear
9:55 PM 19.9 °F 12.1 °F 14.0 °F 78% 30.32 in 10.0 mi SW 5.8 mph - N/A   Clear
10:55 PM 19.9 °F 11.1 °F 14.0 °F 78% 30.31 in 10.0 mi SW 6.9 mph - N/A   Clear
11:55 PM 19.9 °F 14.9 °F 14.0 °F 78% 30.32 in 10.0 mi SW 3.5 mph - N/A   Clear